Location: Boyle Heights
(34.0339°N, 118.2054°W)
Time: 05:16:22
(UTC+00:00)

Daily predictions for brighter satellites

Satellite Brightness Start Highest point End
(mag) Time Altitude Azimuth Time Altitude Azimuth Time Altitude Azimuth
Cosmos 1627 Rocket 4.5 03:28:37 10° S 03:34:49 75° E 03:40:58 10° N
Cosmos 1626 3.1 03:34:39 10° SSW 03:37:41 42° W 03:40:44 10° N
SJ-6B 3.7 03:36:49 10° S 03:40:17 44° W 03:43:45 10° NNW
Cosmos 1470 Rocket 4.2 03:37:26 10° N 03:41:28 37° E 03:45:27 10° SSE
Cosmos 1470 4.4 03:39:00 10° NNE 03:41:30 17° ENE 03:44:00 10° ESE
USA 186 1.8 03:38:14 10° SSE 03:41:32 84° ENE 03:44:52 10° N
Lacrosse 5 rocket 3.6 03:39:29 10° WNW 03:42:33 20° WSW 03:45:32 10° SSW
Okean O Rocket 2.1 03:38:53 10° SE 03:43:04 45° ENE 03:47:14 10° N
KORONAS-FOTON 4.3 03:39:43 10° SSE 03:43:09 36° E 03:46:35 10° NNE
Cosmos 1666 Rocket 3.7 03:44:15 10° N 03:48:36 80° W 03:52:57 10° S
Cosmos 1842 3.3 03:46:18 10° S 03:49:49 50° E 03:53:22 10° NNE
Tiangong -0.9 03:51:02 10° NW 03:53:59 35° NNE 03:56:55 10° E
CZ-4 R/B 2.8 03:54:43 10° SSW 03:58:21 36° W 04:02:03 10° NNW
CZ-4B R/B 3.3 03:53:12 10° S 03:58:28 76° WSW 04:03:48 10° NNW
SPOT 5 3.8 04:01:23 14° ESE 04:04:09 26° ENE 04:07:45 10° NNE
Cosmos 1954 Rocket 4.1 03:59:09 10° SSW 04:04:26 84° WNW 04:09:44 10° NNE
Cosmos 1933 Rocket 4.3 04:01:34 10° NNE 04:05:38 35° E 04:08:38 16° SE
SL-24 R/B 4.2 04:03:38 10° SSE 04:08:38 73° ENE 04:12:58 10° N
Cosmos 1707 2.4 04:07:50 10° S 04:11:25 76° E 04:15:01 10° N
ASTRO E2 3.0 04:10:26 10° SW 04:13:36 34° SSE 04:15:15 22° ESE
Meteor 2-12 Rocket 4.4 04:07:41 10° S 04:13:50 85° E 04:20:02 10° N
Resurs 01 Rocket 2.2 04:09:45 10° S 04:14:04 55° W 04:18:23 10° NNW
Cosmos 2360 Rocket 4.3 04:12:57 10° NNE 04:15:11 12° NE 04:17:25 10° ENE
Cosmos 676 Rocket 4.1 04:10:58 10° SSW 04:16:16 81° WNW 04:21:36 10° NNE
PSLV R/B 3.8 04:14:50 11° S 04:18:11 67° WSW 04:21:42 10° NNW
RESURS DK-1 4.4 04:21:18 10° NNE 04:23:32 14° ENE 04:25:03 12° E
Cosmos 1674 4.2 04:23:31 10° SW 04:26:39 32° W 04:29:48 10° NNW
SJ 16-02 3.1 04:27:06 15° E 04:27:06 15° E 04:29:12 10° ENE
SL-16 R/B 3.1 04:23:02 10° N 04:28:07 33° ENE 04:31:06 20° ESE
SL-27 R/B 4.0 04:31:11 15° ENE 04:31:11 15° ENE 04:32:01 10° NE
ERS-1 Rocket 3.8 04:29:36 22° ESE 04:32:03 35° ENE 04:36:35 10° N
Cosmos 2333 Rocket 4.1 04:28:51 10° NNE 04:32:20 16° NE 04:35:10 12° E
CZ-4C R/B 3.5 04:28:50 10° N 04:33:00 81° WNW 04:37:03 10° SSW
Cosmos 2369 4.1 04:27:29 10° NNW 04:33:08 63° WSW 04:37:46 15° S
Terra 2.8 04:35:24 24° ESE 04:37:11 31° ENE 04:41:20 10° N
MetOp-B 4.1 04:36:45 23° SSE 04:40:07 71° ENE 04:45:28 10° N
Cosmos 841 Rocket 4.3 04:35:38 10° N 04:40:29 37° ENE 04:42:38 26° ESE
Cosmos 1763 Rocket 3.9 04:36:05 10° NNW 04:41:12 59° WSW 04:44:58 18° S
Atlas Centaur 2 3.1 04:33:36 10° W 04:41:31 66° S 04:47:22 21° ESE
Spot 2 Rocket 4.3 04:44:23 27° ESE 04:46:13 35° ENE 04:50:49 10° N
Cosmos 1300 4.2 04:45:01 10° NNE 04:47:23 20° ENE 04:47:23 20° ENE
Cosmos 1400 Rocket 2.7 04:50:12 26° S 04:52:19 85° WNW 04:56:11 10° N
Cosmos 1441 Rocket 3.1 04:50:54 10° NNW 04:54:30 73° W 04:55:40 41° S
USA 234 3.8 04:48:50 10° NE 04:55:15 62° NW 05:01:40 10° WSW
ARGOS Delta rocket 3.7 04:55:11 29° S 04:57:24 75° W 05:01:49 10° NNW
Cosmos 1733 Rocket 4.2 04:54:06 10° NNE 04:57:51 26° ENE 04:58:06 26° E
ATLAS CENTAUR R/B 1.9 04:54:32 10° SW 04:57:52 46° WNW 05:01:17 10° NNE
Cosmos 1908 3.5 04:55:22 10° NNW 04:58:54 57° W 05:00:08 35° SSW
Cosmos 1356 Rocket 3.5 04:58:19 47° SE 04:59:04 56° E 05:03:11 10° NNE
IRS-1A Rocket 4.1 04:57:26 31° SSE 05:00:14 86° ENE 05:05:45 10° NNW
Okean-O 3.6 04:57:59 19° SSW 05:00:47 41° W 05:04:58 10° NNW
Cosmos 1417 Rocket 4.4 04:58:29 10° N 05:04:40 86° W 05:08:06 28° S
Cosmos 1980 Rocket 4.2 05:03:31 10° NW 05:07:40 21° W 05:11:47 10° SSW
USA 245 2.8 05:09:33 80° SE 05:09:41 83° ENE 05:13:41 10° N
Cosmos 2322 Rocket 2.7 05:04:53 10° N 05:10:21 46° ENE 05:11:59 37° ESE
Ariane Rocket 3.1 05:09:34 44° SE 05:10:57 60° ENE 05:15:57 10° N
Meteor 2-10 Rocket 3.6 05:06:27 10° N 05:11:53 64° E 05:13:20 46° SE
Meteor 1-12 Rocket 4.3 05:07:41 10° N 05:13:42 69° E 05:15:46 42° SSE
Meteor 1-22 Rocket 4.2 05:07:59 10° N 05:13:45 89° W 05:16:17 37° S
Cosmos 2228 Rocket 3.1 05:16:47 46° SSW 05:18:07 84° W 05:22:42 10° N
Landsat 4 4.0 05:19:36 51° NNE 05:19:36 51° NNE 05:22:26 10° N
Okean O Rocket 4.3 05:17:33 10° WSW 05:19:29 13° W 05:21:26 10° WNW
BlueWalker 3 3.8 05:22:32 20° NE 05:22:32 20° NE 05:23:48 10° NE
Cosmos 1869 Rocket 4.3 05:18:00 10° NNW 05:22:18 48° W 05:23:48 34° SW
Cosmos 2278 4.0 05:17:53 10° NNW 05:23:30 60° WSW 05:25:34 37° SSW
MOS 1 Rocket 3.5 05:26:15 51° SSE 05:27:43 90° NW 05:33:04 10° NNW
Cosmos 1241 Rocket 4.3 05:24:53 15° SSW 05:30:06 87° WNW 05:36:20 10° NNE
Meteor 1-21 4.2 05:28:09 38° SSW 05:30:32 85° W 05:36:23 10° N
Tiangong 0.0 05:27:48 10° WNW 05:29:15 22° W 05:29:15 22° W
Cosmos 2219 Rocket 3.4 05:29:33 10° N 05:34:25 28° ENE 05:35:22 27° ENE
SL-14 R/B 4.3 05:35:08 35° WSW 05:35:47 39° W 05:39:21 10° N
Cosmos 968 Rocket 4.0 05:35:06 23° SW 05:38:08 55° WNW 05:43:12 10° N
SeaSat 1 2.4 05:37:33 64° S 05:38:13 75° WSW 05:43:08 10° NNW
Spot 1 4.2 05:33:58 10° NNE 05:38:39 86° WNW 05:39:20 66° SSW
MetOp-A 4.3 05:38:18 49° E 05:38:41 50° ENE 05:43:45 10° N
ATLAS 2AS CENTAUR R/B 3.1 05:32:50 10° NNW 05:39:22 50° NE 05:41:14 40° E
SPOT 3 Rocket 3.6 05:41:18 59° SSW 05:42:11 73° WSW 05:47:20 10° NNW
Landsat 5 3.6 05:41:18 10° N 05:45:11 72° NW 05:45:11 72° NW
Cosmos 1455 4.4 05:42:41 10° NNE 05:43:39 15° NE 05:43:39 15° NE
Okean 3 3.7 05:46:51 65° WNW 05:46:51 65° WNW 05:50:45 10° N
Cosmos 1346 Rocket 3.3 05:42:58 10° NNW 05:46:06 55° NNW 05:46:06 55° NNW
Cosmos 1862 Rocket 4.2 05:47:52 47° WSW 05:48:25 50° W 05:52:43 10° N
Cosmos 1814 Rocket 4.1 05:52:50 10° N 05:58:07 65° ENE 05:58:07 65° ENE
Cosmos 2360 Rocket 2.0 05:54:11 10° NNW 05:59:52 85° WSW 06:00:15 78° S
RESURS DK-1 3.6 05:57:36 10° NW 06:00:39 35° W 06:00:39 35° W
SJ 16-02 2.7 06:03:48 31° W 06:04:39 33° WNW 06:08:35 10° N
Cosmos 1244 Rocket 4.5 06:05:47 58° SSW 06:07:04 77° W 06:13:22 10° N
COSMOS 2455 3.4 06:10:53 44° ENE 06:10:53 44° ENE 06:15:27 10° NE
SL-16 R/B 3.5 06:07:15 10° NW 06:12:01 28° WSW 06:12:57 27° WSW
Terra 3.6 06:14:06 20° WSW 06:14:45 21° W 06:18:18 10° NW
Cosmos 2333 Rocket 2.3 06:11:22 10° NNW 06:17:05 66° WSW 06:17:10 66° WSW
Cosmos 839 Rocket 3.9 06:21:08 10° NNW 06:27:38 79° ENE 06:27:50 78° E
ARIANE 5 R/B 3.9 06:30:35 36° NNE 06:30:35 36° NNE 06:33:19 10° N
Atlas Centaur 2 3.5 06:22:56 10° W 06:29:34 41° SW 06:29:34 41° SW
Cosmos 1709 Rocket 4.4 06:33:07 52° ENE 06:33:07 52° ENE 06:38:47 10° NNE
Cosmos 2227 Rocket 4.3 06:37:23 15° ENE 06:37:23 15° ENE 06:38:54 10° NE
Cosmos 2237 Rocket 4.2 06:31:51 10° NNE 06:35:14 16° NE 06:36:08 15° ENE
DNEPR-1 R/B 4.3 06:30:14 10° NNW 06:35:43 69° N 06:35:43 69° N
Cosmos 2322 4.1 06:34:05 10° NNW 06:39:08 55° NE 06:39:08 55° NE
CZ-4C R/B 3.1 06:43:38 33° NNE 06:43:38 33° NNE 06:46:32 10° NNE
Cosmos 1375 Rocket 4.5 06:45:43 10° NNW 06:52:08 83° NNE 06:52:08 83° NNE
Cosmos 2322 Rocket 4.0 06:49:58 10° NW 06:53:48 20° W 06:53:48 20° W
Cosmos 2297 Rocket 2.9 06:56:04 46° NE 06:56:04 46° NE 07:00:04 10° NNE
Meteor 2-5 Rocket 4.1 07:18:28 64° N 07:18:28 64° N 07:23:22 10° N
Cosmos 2219 Rocket 3.5 07:13:15 10° NW 07:17:04 31° WNW 07:17:04 31° WNW
ALOS 2 4.3 07:21:24 30° N 07:21:24 30° N 07:23:43 10° N
COSMOS 2428 3.3 07:16:23 10° NNW 07:20:46 54° NW 07:20:46 54° NW
Cosmos 2263 Rocket 4.3 07:28:45 16° ENE 07:28:45 16° ENE 07:30:29 10° NE
USA 281 3.5 07:28:43 55° W 07:28:43 55° W 07:34:32 10° NNW
ATLAS 2AS CENTAUR R/B 4.1 07:24:32 10° WNW 07:28:39 24° W 07:28:39 24° W
Cosmos 2181 Rocket 4.2 07:38:16 10° N 07:43:33 64° NNE 07:43:33 64° NNE
Cosmos 2074 Rocket 4.3 07:48:37 61° NE 07:48:37 61° NE 07:53:51 10° N
SL-4 R/B 4.5 07:58:23 10° NNW 08:00:05 21° NNW 08:00:05 21° NNW
SL-12 R/B(2) 4.1 08:07:12 70° WSW 08:08:10 79° WNW 08:17:19 10° NNE
SL-16 R/B 3.6 08:08:19 10° N 08:13:17 30° ENE 08:13:49 30° ENE
Cosmos 2227 Rocket 3.1 08:19:09 42° NW 08:19:09 42° NW 08:23:52 10° N
Cosmos 2237 Rocket 3.1 08:14:09 10° NNW 08:17:55 42° NW 08:17:55 42° NW
CENTAUR R/B 2.9 08:20:13 51° NW 08:20:13 51° NW 08:26:08 10° NNE
GEOS 3 Rocket 4.4 08:18:01 10° NNE 08:22:06 47° NNW 08:22:06 47° NNW
Nadezhda 3 Rocket 4.1 08:24:57 10° N 08:30:36 72° NNE 08:30:36 72° NNE
Cosmos 1937 Rocket 4.4 08:40:11 43° NE 08:40:11 43° NE 08:43:58 10° NNE
Cosmos 2297 Rocket 4.4 08:37:49 14° WNW 08:38:58 15° NW 08:42:12 10° NNW
H-2A R/B 4.3 08:38:12 10° NNW 08:39:52 18° NW 08:39:52 18° NW
Cosmos 2219 3.8 08:43:27 48° NW 08:43:27 48° NW 08:48:09 10° N
Cosmos 1898 Rocket 4.2 08:45:27 50° NNE 08:45:27 50° NNE 08:49:16 10° NNE
Resurs 1-4 Rocket 3.5 08:58:50 10° NE 09:03:13 28° E 09:03:13 28° E
SL-8 Rocket 3.9 09:06:26 83° ENE 09:06:26 83° ENE 09:12:31 10° N
NOSS 3-2 (A) 4.3 09:09:04 32° NW 09:09:16 32° NW 09:14:25 10° NNE
Cosmos 2263 Rocket 2.9 09:10:25 43° NW 09:10:25 43° NW 09:15:18 10° N
NOSS 3-2 (C) 3.3 09:16:18 64° NNW 09:16:18 64° NNW 09:21:28 10° NNE
Meteor 2-1 Rocket 4.2 09:12:05 10° N 09:17:52 82° ENE 09:17:52 82° ENE
Cosmos 1680 Rocket 4.2 09:17:41 10° N 09:22:42 47° ENE 09:23:20 45° E
Cosmos 1959 Rocket 4.3 09:25:42 81° SW 09:26:02 85° W 09:32:23 10° N
USA 267 4.0 09:20:28 10° ENE 09:26:23 36° SE 09:26:45 36° SE
Cosmos 1437 Rocket 4.5 09:29:32 29° NE 09:29:32 29° NE 09:31:52 10° NNE
Cosmos 1844 Rocket 3.2 09:29:05 46° ESE 09:29:13 46° ESE 09:34:32 10° NE
Cosmos 1818 4.3 09:24:52 10° NNW 09:30:11 51° ENE 09:32:05 35° ESE
COBE Rocket 4.2 09:33:31 10° N 09:38:16 62° NW 09:38:16 62° NW
Cosmos 2341 Rocket 4.4 09:41:06 45° W 09:41:14 45° W 09:47:09 10° N
BREEZE-M DEB (TANK) 4.0 09:45:16 26° NE 09:45:32 27° NE 09:49:34 10° ESE
IDEFIX/ARIANE 42P 2.5 09:44:09 10° N 09:49:22 73° WNW 09:49:25 73° W
MOZ.5/SAFIR/RUBIN 5/SL-8 4.4 09:56:28 45° NW 09:56:28 45° NW 10:00:00 10° NNW
SL-16 R/B 3.5 09:52:20 10° NW 09:55:38 27° WNW 09:55:38 27° WNW
Mugunghwa Rocket 4.5 09:59:07 42° SSE 09:59:07 42° SSE 10:04:32 10° ESE
CZ-2C R/B 2.9 09:54:09 10° NNE 09:59:28 80° ESE 10:00:02 69° SSE
CZ-2C R/B 2.6 09:59:28 53° SSE 10:00:41 78° ENE 10:06:03 10° N
Cosmos 1125 Rocket 4.4 10:01:35 34° SE 10:02:56 40° E 10:07:51 10° NNE
Cosmos 2228 3.7 10:03:19 10° NNW 10:06:35 44° NW 10:06:35 44° NW
CZ-2D R/B 2.0 10:02:16 10° N 10:07:33 71° WNW 10:08:12 63° WSW
MSX 4.0 10:04:37 10° N 10:10:13 57° WNW 10:11:12 50° WSW
Cosmos 1821 Rocket 4.0 10:09:42 52° WSW 10:10:46 59° W 10:16:49 10° N
Cosmos 1943 3.0 10:05:26 10° NNW 10:11:04 88° WSW 10:12:59 44° SSE
Cosmos 1867 3.9 10:10:54 46° W 10:11:45 50° WNW 10:17:05 10° NNE
H-2A R/B 4.4 10:08:22 10° N 10:11:22 35° NW 10:11:22 35° NW
FENGYUN 3A 3.6 10:09:07 10° NNE 10:14:31 84° ESE 10:15:51 53° S
SL-24 DEB 4.5 10:11:28 10° NNE 10:16:00 63° E 10:17:00 49° SSE
AQUA 3.8 10:14:02 10° NNE 10:18:46 76° ESE 10:19:42 56° S
USA 238 DEB 4.0 10:20:07 35° W 10:22:06 46° NW 10:28:22 10° NNE
USA 238 4.0 10:20:10 35° W 10:22:08 46° NW 10:28:25 10° NNE
ALOS 2.5 10:20:14 10° NNE 10:24:48 60° E 10:26:09 41° SSE
ADEOS II 2.0 10:21:42 10° N 10:26:55 71° WNW 10:28:15 49° SW
SAR-Lupe-4 4.3 10:26:11 10° NNE 10:29:35 44° E 10:30:06 41° SE
Delta 142 4.4 10:30:17 38° S 10:30:17 38° S 10:35:03 10° ESE
BREEZE-M DEB (TANK) 3.3 10:30:15 44° SE 10:30:33 46° SE 10:36:54 10° NE
ATLAS 5 CENTAUR R/B 2.2 10:37:32 27° SE 10:37:49 28° ESE 10:40:43 10° NE
Cosmos 921 Rocket 2.7 10:37:58 10° NNW 10:42:10 83° WSW 10:43:33 41° S
Resurs 1-4 Rocket 3.1 10:38:30 10° N 10:43:01 30° WNW 10:44:17 27° W
Iridium 2 4.4 10:45:17 26° NNW 10:45:17 26° NNW 10:46:33 10° N
Dummy Sat-01 4.4 10:41:05 10° N 10:44:48 78° W 10:45:20 61° SSW
Meteor 1-28 Rocket 2.8 10:44:34 62° S 10:45:05 83° WSW 10:48:39 10° NNW
Cosmos 1844 4.4 10:43:33 32° WSW 10:45:31 42° WNW 10:51:00 10° N
Cosmos 1606 Rocket 3.6 10:42:55 10° NNW 10:47:16 58° W 10:48:20 44° SW
Cosmos 2058 2.9 10:46:01 40° S 10:47:23 77° E 10:51:27 10° N
Cosmos 1934 Rocket 4.0 10:44:13 30° SSW 10:47:29 75° W 10:53:53 10° N
SL-16 R/B 2.5 10:44:24 12° SSE 10:50:20 87° WSW 10:56:36 10° NNW
IRAS Rocket 4.2 10:45:47 10° NNE 10:51:18 88° ESE 10:54:25 27° SSW
Cosmos 2123 Rocket 3.9 10:47:18 10° N 10:53:31 87° W 10:59:02 14° S
NOSS 2-2 (C) 2.9 10:54:30 49° S 10:55:15 70° ESE 10:58:23 10° NE
Cosmos 2298 Rocket 4.1 10:56:45 25° S 10:59:54 79° ESE 11:05:14 10° NNE
Cosmos 1726 Rocket 3.7 10:57:58 10° NNW 11:02:16 53° W 11:04:06 31° SSW
NOSS 2-2 (D) 3.5 11:03:33 30° S 11:04:59 51° ESE 11:08:06 10° NE
Cosmos 1238 Rocket 3.0 11:02:08 10° N 11:05:13 48° E 11:07:23 15° SSE
USA 267 3.7 11:03:07 10° NE 11:09:26 54° NW 11:14:06 19° WSW
Delta 2 Rocket 3.1 11:08:38 20° W 11:11:17 72° SSW 11:15:36 10° ESE
NOSS 2-3 (E) 3.2 11:10:11 29° SSW 11:11:54 69° ESE 11:15:34 10° NE
Cosmos 1844 Rocket 4.3 11:10:44 16° W 11:13:17 21° WNW 11:17:25 10° N
METEOR-M 4.1 11:07:59 10° NNE 11:13:21 88° ESE 11:17:40 16° SSW
NOAA 11 4.2 11:08:14 10° NNE 11:13:43 80° ESE 11:18:28 14° S
NOSS 2-3 (C) 3.0 11:15:42 27° SSW 11:17:32 81° ESE 11:21:14 10° NNE
SEDSat Delta rocket 2.8 11:19:21 23° WSW 11:21:43 59° S 11:25:42 10° ESE
H-2A R/B 4.0 11:18:47 10° NE 11:23:07 26° E 11:27:20 10° SSE
Cosmos 724 4.3 11:18:19 10° NNW 11:24:10 89° ENE 11:30:03 10° SSE
ASTEX 1 4.5 11:23:12 21° WSW 11:24:55 25° W 11:28:56 10° NNW
Cosmos 1544 3.2 11:26:12 28° W 11:26:29 28° W 11:28:49 10° NNW
IRS-1D 3.9 11:22:44 10° NNE 11:27:50 62° ESE 11:32:47 10° S
Orbus 7S? 4.4 11:25:04 10° WNW 11:28:49 46° SW 11:36:44 10° SSE
Cosmos 1602 Rocket 4.0 11:25:45 10° S 11:30:09 64° E 11:34:34 10° NNE
Cosmos 1271 Rocket 3.1 11:30:15 10° S 11:33:44 56° E 11:37:16 10° NNE
CZ-2C R/B 2.2 11:29:25 10° NNE 11:33:59 86° WNW 11:38:36 10° SSW
Lacrosse 5 3.3 11:30:28 10° S 11:34:51 30° ESE 11:39:15 10° ENE
Envisat 3.3 11:31:49 10° N 11:36:43 51° WNW 11:40:58 13° SW
Cosmos 2278 Rocket 3.2 11:32:50 10° S 11:38:13 45° ESE 11:43:35 10° NE
Cosmos 1862 3.7 11:35:27 10° S 11:39:10 59° E 11:42:55 10° NNE
UNK 4.3 11:36:42 10° SSW 11:40:55 37° W 11:45:11 10° NNW
Cosmos 1758 Rocket 3.5 11:38:13 10° S 11:42:38 75° W 11:47:03 10° N
Cosmos 2058 Rocket 3.7 11:39:29 10° NNW 11:43:29 35° W 11:47:26 10° SSW
YAOGAN 6 2.4 11:43:48 10° N 11:46:55 55° WNW 11:49:48 11° SSW
USA 276 3.0 11:47:58 12° SSW 11:50:24 35° SE 11:53:05 10° ENE
SWARM A 4.4 11:47:35 10° S 11:51:05 86° E 11:54:38 10° N
Cosmos 1812 4.3 11:50:04 10° NW 11:52:15 16° W 11:53:51 12° WSW
Mugunghwa Rocket 4.5 11:47:33 10° WSW 11:53:43 41° S 11:59:35 10° ESE
